This demonstration page uses our WeatherBlox Daily Observations layout. Learn more.

Left ArrowRight Arrow

53.62937, 11.41316

Hourly Observations for February 24, 2019

Temp ( °F °C ) Dew Point ( °F °C ) Humidity (%) Winds ( mph kmh ) Pressure ( in mb ) Visibility ( mi km ) Precip ( " mm )
6:50 am 06:50 Mostly Clear 30 -1 23 -5 75 75 VRB 2 4 30.66 1038 7 11 N/A
7:20 am 07:20 Mostly Sunny 28 -2 23 -5 80 80 VRB 2 4 30.66 1038 7 11 N/A
7:50 am 07:50 Mostly Sunny 30 -1 23 -5 75 75 SE 3 6 30.63 1037 7 11 N/A
8:20 am 08:20 Mostly Sunny 32 0 25 -4 75 75 VRB 2 4 30.66 1038 7 11 N/A
8:50 am 08:50 Mostly Sunny 34 1 25 -4 70 70 VRB 2 4 30.66 1038 7 11 N/A
9:20 am 09:20 Mostly Sunny 36 2 27 -3 70 70 VRB 2 4 30.65 1038 7 11 N/A
9:50 am 09:50 Mostly Sunny 39 4 27 -3 61 61 VRB 2 4 30.65 1038 7 11 N/A
10:20 am 10:20 Mostly Sunny 41 5 28 -2 61 61 VRB 2 4 30.65 1038 7 11 N/A
10:50 am 10:50 Mostly Sunny 43 6 28 -2 57 57 SSW 6 9 30.65 1038 7 11 N/A
11:20 am 11:20 Mostly Sunny 45 7 28 -2 53 53 SW 3 6 30.65 1038 7 11 N/A
11:50 am 11:50 Mostly Sunny 48 9 28 -2 46 46 SSW 5 7 30.65 1038 7 11 N/A
12:20 pm 12:20 Mostly Sunny 50 10 28 -2 43 43 WSW 5 7 30.65 1038 7 11 N/A
12:50 pm 12:50 Mostly Sunny 52 11 28 -2 41 41 SW 6 9 30.65 1038 7 11 N/A
1:20 pm 13:20 Mostly Sunny 54 12 28 -2 38 38 WSW 6 9 30.65 1038 7 11 N/A
1:50 pm 13:50 Mostly Sunny 55 13 30 -1 38 38 WSW 5 7 30.65 1038 7 11 N/A
2:20 pm 14:20 Mostly Sunny 55 13 28 -2 36 36 WSW 6 9 30.65 1038 7 11 N/A
2:50 pm 14:50 Mostly Sunny 55 13 28 -2 36 36 SW 7 11 30.62 1037 7 11 N/A
3:20 pm 15:20 Mostly Sunny 57 14 30 -1 36 36 SSW 7 11 30.62 1037 7 11 N/A
3:50 pm 15:50 Mostly Sunny 57 14 30 -1 36 36 SW 7 11 30.62 1037 7 11 N/A
4:20 pm 16:20 Mostly Sunny 55 13 28 -2 36 36 WSW 5 7 30.65 1038 7 11 N/A
4:50 pm 16:50 Mostly Sunny 55 13 30 -1 38 38 SSW 6 9 30.62 1037 7 11 N/A
5:20 pm 17:20 Mostly Sunny 54 12 30 -1 41 41 SW 5 7 30.62 1037 7 11 N/A
5:50 pm 17:50 Mostly Clear 48 9 30 -1 50 50 VRB 1 2 30.65 1038 7 11 N/A
6:20 pm 18:20 Mostly Clear 48 9 28 -2 46 46 VRB 1 2 30.65 1038 7 11 N/A
6:50 pm 18:50 Mostly Clear 45 7 28 -2 53 53 VRB 1 2 30.65 1038 7 11 N/A

Powered by AerisWeather